Lapse_Rate
6.6 6.6 6.5 6.4 6.3 6.0 6.4 6.9 7.9 8.2 8.2 8.5 8.6 8.5 9.0 9.0 9.0 8.7 8.8 8.7 8.3 8.3 8.1 8.1 8.0 7.7 7.6 7.3 7.0 6.7 6.6 6.4 6.2 6.0 5.9 5.8 5.8 5.7 5.7 5.7 5.7 5.7 5.6 5.7 5.6 5.5 5.4 5.4 5.6
6.8 6.7 6.5 6.5 6.2 5.7 6.8 7.9 7.9 8.3 8.4 8.5 8.6 8.4 8.9 9.3 9.1 9.0 8.8 8.6 8.4 8.1 8.2 8.4 8.2 7.9 7.7 7.4 7.0 6.8 6.7 6.5 6.5 6.3 6.1 5.9 5.8 5.8 5.8 5.8 5.9 5.9 5.7 5.7 5.7 5.8 5.8 5.8 5.8
7.2 6.8 6.5 6.1 6.1 6.0 7.3 7.9 8.0 8.1 8.5 8.5 8.5 8.3 8.9 9.1 9.1 8.9 8.8 8.9 8.7 8.0 8.2 8.5 8.3 8.2 7.8 7.6 7.3 7.1 6.8 6.7 6.6 6.4 6.3 6.1 5.9 5.9 6.0 6.1 6.1 6.1 6.0 6.0 6.0 6.1 6.0 6.2 6.2
7.3 7.0 6.5 6.3 6.7 7.0 7.7 7.9 8.0 8.2 8.7 8.6 8.5 9.1 9.1 9.1 9.3 8.9 8.8 8.6 8.7 8.4 8.1 8.4 8.4 8.2 8.0 7.7 7.4 7.2 7.1 6.9 6.7 6.6 6.5 6.4 6.3 6.1 6.2 6.3 6.4 6.4 6.2 6.3 6.3 6.4 6.5 6.5 6.5
6.9 7.1 6.7 6.7 6.8 7.3 7.4 7.6 7.8 7.9 8.0 8.6 8.5 9.1 9.0 9.0 9.1 8.8 8.4 8.2 8.5 8.4 8.2 8.3 8.3 8.1 8.0 7.8 7.5 7.2 7.1 7.0 6.9 6.8 6.8 6.7 6.7 6.7 6.6 6.7 6.7 6.7 6.6 6.5 6.6 6.7 6.8 6.9 7.1
6.8 6.5 6.7 7.1 7.3 7.3 7.5 7.6 7.2 7.3 7.8 8.7 8.6 9.0 8.8 8.9 8.8 8.6 8.5 8.4 8.3 8.5 8.4 8.3 8.3 8.1 8.0 7.8 7.6 7.4 7.2 7.3 7.2 7.0 7.0 6.9 6.9 7.0 7.0 7.0 7.1 7.1 7.0 6.9 6.9 6.9 7.0 7.0 7.1
7.4 7.0 6.5 7.3 7.4 7.4 7.7 7.6 8.0 7.9 8.0 8.8 8.1 8.9 9.0 8.6 8.4 8.4 8.6 8.3 8.3 8.4 8.2 8.3 8.4 8.2 8.0 7.9 7.6 7.6 7.3 7.2 7.2 7.1 7.1 7.0 7.1 7.2 7.3 7.4 7.4 7.3 7.3 7.3 7.2 7.2 7.2 7.3 7.3
7.0 6.7 6.4 6.1 7.0 7.4 8.2 7.7 7.7 8.0 8.5 8.5 8.6 8.8 9.0 9.0 8.9 8.4 8.2 8.5 8.2 8.0 7.9 8.2 8.4 8.4 8.2 8.1 7.8 7.7 7.5 7.3 7.3 7.3 7.2 7.3 7.3 7.5 7.6 7.6 7.6 7.6 7.6 7.5 7.4 7.5 7.3 7.4 7.4
6.9 6.1 5.9 5.8 6.7 7.7 8.7 7.3 7.9 7.8 8.0 8.3 8.6 8.5 8.2 8.5 8.8 8.6 8.2 8.2 8.2 8.1 8.1 8.0 8.2 8.5 8.3 8.1 7.9 7.9 7.7 7.5 7.5 7.5 7.5 7.6 7.5 7.7 7.8 7.9 7.9 7.9 7.8 7.7 7.6 7.6 7.6 7.6 7.6
6.6 5.8 5.6 7.1 7.6 8.2 8.6 7.3 7.5 7.5 8.0 8.7 8.7 8.5 8.4 8.5 9.1 8.9 8.4 7.9 8.0 8.0 8.1 8.1 8.3 8.4 8.6 8.2 8.2 8.0 7.8 7.7 7.6 7.6 7.6 7.7 7.7 7.8 8.0 8.1 8.1 8.0 7.9 7.9 7.8 7.8 7.9 7.8 7.9
6.6 6.1 6.3 6.6 7.3 7.6 8.4 8.2 7.5 7.7 7.8 8.3 8.4 8.5 8.0 8.4 8.7 8.8 8.7 8.7 8.4 8.0 8.0 8.2 8.1 8.4 8.2 8.3 8.4 8.1 7.9 7.8 7.7 7.7 7.7 7.8 7.7 8.0 8.1 8.2 8.0 8.1 8.1 7.9 7.9 7.9 8.1 8.0 8.1
6.2 6.3 6.2 6.2 6.4 6.6 7.1 7.5 7.9 7.6 8.1 7.9 8.2 7.9 7.8 8.1 8.4 8.0 7.2 8.0 8.2 8.0 8.0 8.1 7.8 8.2 8.4 8.5 8.4 8.2 8.0 8.0 7.8 7.8 7.8 7.8 7.8 7.9 8.2 8.2 8.2 8.1 8.2 8.1 7.9 8.0 8.2 8.2 8.3
5.9 6.2 6.2 6.2 6.2 6.6 6.7 7.3 7.5 8.3 8.3 8.2 8.4 7.7 7.8 8.3 8.2 7.5 7.7 7.5 7.8 8.1 8.0 8.1 7.8 7.8 8.3 8.3 8.2 8.1 8.4 8.0 8.0 7.9 8.0 8.1 7.9 8.0 8.0 8.2 8.1 8.1 8.1 8.0 8.0 8.1 8.2 8.3 8.4
6.1 6.1 6.1 6.5 6.4 6.2 6.2 6.5 7.2 8.1 8.6 8.0 8.4 8.7 8.0 8.2 8.4 7.6 7.6 7.9 8.1 7.7 7.6 7.7 7.7 7.8 7.8 8.1 7.8 7.6 8.1 8.1 8.2 8.1 8.2 8.2 8.2 8.1 8.0 8.2 8.2 8.2 8.0 7.9 8.1 8.1 8.3 8.4 8.6
6.0 6.1 6.2 6.1 6.6 6.5 6.9 6.8 6.8 7.4 7.9 8.0 7.9 8.3 8.7 8.4 8.6 8.1 7.4 7.0 7.7 8.3 8.2 8.1 7.7 7.6 7.6 7.7 8.0 7.5 8.3 8.3 8.2 8.1 8.2 8.3 8.3 8.2 8.2 8.2 8.2 8.1 8.0 7.9 8.1 8.2 8.2 8.5 8.5
6.0 6.1 6.1 6.5 6.8 6.9 7.3 6.3 7.3 7.6 7.4 8.3 8.0 8.0 8.7 8.9 9.2 8.7 8.3 7.7 7.3 7.8 8.3 7.7 8.0 8.0 8.1 7.8 7.0 7.7 8.2 8.4 8.0 8.1 8.1 8.2 8.4 8.3 8.3 8.4 8.3 7.9 8.2 8.0 8.1 8.2 8.2 8.4 8.6
6.2 6.1 6.1 6.3 6.9 7.0 7.1 6.4 6.8 7.3 7.3 7.5 8.2 7.8 8.2 9.1 8.7 9.1 8.8 8.2 7.9 7.4 7.5 7.5 7.4 7.3 7.9 7.1 7.4 8.2 8.1 8.1 8.0 8.1 8.0 8.0 8.2 8.3 8.4 8.4 8.4 8.0 8.0 8.0 8.1 8.2 8.2 8.3 8.4
5.9 5.9 6.0 6.0 6.3 6.6 6.8 6.2 6.2 6.5 6.7 6.8 7.2 7.6 7.8 8.3 8.9 8.5 8.8 8.4 7.9 7.7 7.7 7.6 7.6 7.7 7.9 7.4 7.7 8.0 8.0 8.0 8.0 7.9 7.7 7.9 8.2 8.4 8.3 8.3 8.6 8.0 7.9 7.9 8.0 8.1 8.0 8.2 8.1
5.7 5.7 5.7 5.9 6.2 6.2 6.3 5.8 6.1 6.4 6.6 6.6 6.6 6.9 7.1 7.2 7.9 8.4 8.8 8.8 8.5 8.1 7.8 7.6 7.6 7.7 8.2 8.3 7.8 7.6 7.5 7.7 7.4 7.5 7.7 7.9 8.1 8.2 8.1 8.3 8.5 8.2 7.9 7.8 8.1 8.1 7.9 8.1 8.0
5.8 5.8 5.9 6.0 6.3 6.3 6.3 6.0 6.2 6.3 6.3 6.5 6.6 6.9 6.9 7.3 7.3 7.9 8.2 8.7 8.9 8.7 8.3 8.0 7.7 7.5 7.6 7.6 7.7 7.5 7.6 7.6 7.5 7.5 8.0 7.9 8.1 8.0 7.9 8.3 8.4 8.1 7.9 7.9 8.1 8.0 7.8 7.9 7.8
5.9 5.8 5.3 5.3 5.5 5.9 6.2 5.7 5.7 6.5 6.1 6.4 6.5 6.7 7.0 7.0 7.2 7.3 7.7 7.8 8.3 8.9 8.9 8.7 8.2 7.7 7.4 7.7 7.6 7.5 7.5 7.5 7.6 7.8 8.1 7.8 8.0 7.7 8.0 8.3 8.1 7.9 8.0 7.9 8.1 7.8 7.8 7.8 7.7
6.2 6.4 6.3 6.0 5.9 5.6 6.4 4.8 5.3 5.6 5.9 5.8 6.2 6.6 6.7 7.1 7.0 7.0 7.2 7.7 8.2 8.1 8.7 8.7 8.3 8.1 7.7 7.7 7.8 7.5 7.7 7.7 7.6 7.7 7.6 7.8 8.1 7.8 8.3 8.3 7.9 7.6 7.8 7.9 7.7 7.7 7.7 7.7 7.6
6.3 6.4 6.4 6.2 6.1 6.0 5.4 6.2 4.6 5.5 5.5 5.7 6.1 6.7 6.9 7.1 7.3 7.1 7.3 7.5 7.7 7.9 8.0 8.1 8.3 8.3 8.1 7.9 7.4 7.3 7.7 7.5 7.5 7.2 7.4 7.4 7.4 7.6 8.2 8.0 7.5 7.4 7.8 7.9 7.8 7.7 7.7 7.7 7.4
7.2 6.7 6.3 6.2 6.4 6.0 6.0 7.4 4.8 5.3 5.4 6.3 6.7 6.7 6.5 6.8 7.0 7.1 7.4 7.5 7.7 7.8 8.0 8.0 8.0 7.8 8.1 7.7 7.3 7.5 7.5 7.1 7.0 7.2 7.0 7.4 7.6 7.8 7.8 7.6 7.3 7.4 7.7 7.8 7.6 7.7 7.7 7.5 7.2
7.7 7.7 6.5 6.1 6.4 6.3 8.0 7.1 5.6 5.9 6.6 6.4 6.0 6.5 6.7 6.6 6.7 7.6 7.6 7.7 7.4 7.6 7.8 7.8 8.0 7.9 7.5 7.3 7.1 7.5 7.3 7.1 7.2 6.9 7.2 7.4 7.5 7.5 7.5 7.1 7.1 7.4 7.6 7.6 7.6 7.8 7.6 7.3 7.0
7.5 7.7 7.7 7.2 7.3 7.0 7.4 7.3 7.6 7.1 7.7 6.9 6.3 6.2 6.8 6.9 6.9 7.1 7.6 7.7 7.5 7.3 7.5 7.4 7.5 7.3 7.3 7.3 7.2 7.4 7.4 7.3 7.0 7.0 7.2 7.4 7.5 7.3 7.0 7.1 7.1 7.3 7.4 7.5 7.7 7.6 7.2 7.0 6.8
7.8 7.5 8.0 8.1 7.7 7.0 7.3 7.7 7.9 8.1 8.1 8.4 7.8 7.4 7.2 7.1 7.1 7.1 7.3 7.6 7.4 7.3 7.4 7.5 7.6 7.4 7.3 7.4 7.4 7.3 7.3 7.1 7.0 7.2 7.3 7.7 7.3 7.0 7.1 7.2 7.2 7.2 7.4 7.5 7.5 7.2 7.0 7.0 6.8
8.4 7.7 7.5 7.7 7.1 7.3 7.6 8.0 7.9 8.1 8.1 8.3 8.2 8.1 8.0 7.0 7.1 7.1 7.2 7.7 7.5 7.4 7.3 7.4 7.4 7.3 7.3 7.3 7.2 7.1 7.3 7.3 7.1 7.1 7.7 7.4 7.1 7.0 7.3 7.2 7.1 7.3 7.4 7.4 7.2 6.8 7.1 6.8 6.4
7.4 7.6 7.5 7.3 7.1 7.4 7.0 7.5 8.2 8.1 7.7 7.8 7.8 7.6 7.7 7.7 7.4 6.9 7.1 7.5 7.5 7.5 7.4 7.3 7.4 7.4 7.4 7.2 7.2 7.1 7.0 7.0 7.2 7.4 7.5 7.2 7.0 7.1 7.2 7.0 7.3 7.3 7.1 7.1 7.2 6.8 6.8 6.4 6.0
7.6 7.5 7.6 7.6 7.3 6.9 6.9 6.9 8.4 8.1 8.3 8.2 7.8 7.9 8.0 8.2 7.7 6.7 7.2 7.5 7.5 7.5 7.3 7.2 7.0 7.3 7.4 7.3 7.2 7.0 6.9 7.0 7.3 7.4 7.5 7.2 7.1 7.2 7.1 7.2 7.0 6.9 7.0 7.0 6.8 6.5 6.3 6.1 6.3
Wind_Speed
7 7 1 3 3 4 4 7 5 14 9 2 8 7 9 8 7 5 5 9 22 19 17 21 23 27 28 27 25 24 22 21 20 18 18 19 18 17 17 16 14 14 12 12 10 9 8 7 5
4 3 3 2 4 1 6 6 16 8 13 17 17 3 3 3 5 9 12 14 24 20 16 18 23 27 28 28 26 24 23 22 21 20 19 19 18 17 16 15 14 13 12 11 10 9 8 8 7
2 1 3 3 4 6 6 3 5 6 12 18 9 8 7 8 3 17 5 19 24 19 18 18 23 26 28 28 27 26 24 23 22 21 20 19 18 17 16 15 14 13 12 11 11 11 10 9 8
1 3 2 2 10 8 6 11 14 14 16 16 8 4 2 8 20 10 20 18 23 19 17 21 23 25 28 28 27 26 26 24 23 22 20 20 19 17 16 15 14 13 12 12 11 11 10 10 8
2 3 1 4 10 8 9 8 8 13 12 18 7 7 7 2 13 22 22 19 22 17 14 20 23 24 27 27 28 26 26 25 24 23 22 21 20 18 17 16 15 15 14 13 13 12 11 10 8
1 3 1 6 14 13 8 8 6 7 9 19 9 4 2 4 16 18 20 19 19 21 15 18 23 23 25 26 26 27 26 26 25 24 23 21 20 19 18 17 16 15 15 14 13 12 11 10 9
4 4 6 5 11 13 12 5 11 7 9 12 6 1 2 5 9 19 18 15 16 18 17 13 17 20 23 24 24 26 25 24 24 24 23 21 21 20 19 18 17 16 16 15 14 13 12 11 10
3 2 4 5 11 11 7 3 5 10 16 6 5 1 2 6 9 11 10 10 14 13 13 13 10 15 15 17 21 23 23 23 23 22 21 20 20 19 19 18 18 17 17 16 15 14 14 13 12
1 4 10 12 12 11 9 8 15 6 8 10 9 7 5 14 13 11 11 7 6 10 12 12 11 10 11 13 15 17 20 21 20 19 20 18 13 15 16 15 16 17 17 17 16 15 15 14 13
5 5 8 6 10 12 14 17 19 17 17 18 12 14 15 8 19 19 15 12 11 12 12 11 12 12 11 10 13 12 13 14 15 15 16 13 14 14 14 15 18 17 18 18 17 16 15 15 11
4 11 7 7 9 8 14 22 15 16 17 15 9 10 9 11 7 5 22 23 22 17 11 14 13 12 13 10 7 6 9 9 11 13 14 12 11 11 12 10 11 13 18 12 15 12 12 9 8
7 10 7 10 15 15 19 19 21 18 21 13 17 3 5 6 3 6 6 3 10 14 12 8 6 3 6 6 7 7 7 6 6 11 14 8 5 6 5 4 8 8 11 7 9 7 9 9 10
6 9 9 11 12 16 17 21 23 24 22 14 22 7 5 3 4 5 8 3 11 13 12 11 9 7 4 5 5 7 8 7 8 8 14 13 8 7 7 6 6 7 10 8 5 5 6 6 7
5 7 9 7 9 6 8 13 12 27 20 14 16 21 7 5 9 8 6 6 10 10 12 14 12 10 11 9 8 8 8 8 6 7 11 17 10 7 8 7 8 6 11 11 8 8 8 7 5
7 7 9 6 3 4 7 16 23 14 10 12 11 19 8 7 5 10 11 8 8 14 14 16 15 16 11 8 10 8 8 7 8 8 12 15 14 10 10 8 8 8 12 10 8 6 4 4 5
6 4 4 3 7 5 8 24 22 12 10 17 11 13 16 7 10 10 10 9 8 12 14 14 11 9 9 14 13 9 7 8 8 8 8 13 14 13 10 8 8 7 7 7 8 6 5 6 5
3 4 6 7 6 6 6 16 8 8 8 16 18 9 16 15 9 9 10 14 11 8 10 12 14 19 21 18 15 13 10 10 8 7 7 10 12 14 10 9 8 6 7 8 8 6 5 4 4
6 5 6 4 5 1 7 15 8 6 6 8 10 11 14 17 12 10 10 12 13 15 11 14 12 14 17 13 13 8 6 8 6 8 9 10 10 12 11 8 7 8 7 7 6 8 6 3 5
7 10 7 5 8 6 8 15 14 6 6 8 9 12 13 15 19 11 11 10 12 11 12 8 12 16 11 8 8 7 11 10 5 7 9 10 10 11 12 9 8 10 10 10 10 6 5 3 4
8 5 7 6 7 11 12 21 18 8 6 7 10 11 11 13 17 18 12 12 9 9 13 15 11 14 12 11 10 8 10 6 9 8 9 11 12 10 11 12 10 12 8 7 8 7 3 3 5
5 5 8 8 12 8 6 17 16 15 5 6 8 9 10 10 13 15 13 10 10 10 10 11 17 18 17 17 8 3 3 1 3 4 4 6 9 11 12 12 11 10 9 8 7 6 7 4 3
3 7 10 12 9 4 3 13 16 12 14 7 9 8 11 11 11 10 13 11 9 10 8 9 14 17 17 15 14 14 6 5 5 4 4 4 8 11 12 12 10 10 6 6 5 5 5 5 5
6 6 6 9 10 4 9 6 14 5 13 15 13 15 11 12 10 12 14 15 14 10 10 9 10 10 12 12 11 10 5 5 2 3 5 4 5 10 11 11 8 7 5 6 7 7 6 4 4
3 4 6 4 3 6 9 8 26 12 9 14 12 13 14 16 15 14 11 13 12 8 8 9 10 11 9 9 9 9 10 8 5 4 4 4 3 5 8 10 9 7 6 6 6 6 8 6 4
1 4 4 5 3 5 2 5 19 9 3 2 9 12 12 12 12 15 17 14 11 10 10 9 12 14 14 14 12 12 13 12 10 7 6 6 4 3 7 8 7 6 6 6 6 6 6 5 5
5 6 4 4 6 10 13 7 5 7 3 3 7 9 10 8 10 14 17 17 14 13 11 12 11 14 13 15 16 13 13 9 7 8 6 7 7 7 8 8 7 8 6 6 6 4 4 5 4
2 4 7 3 3 5 5 7 6 5 6 9 11 10 13 13 10 14 17 16 16 15 17 15 15 16 15 15 12 10 11 9 9 9 8 6 5 6 8 8 7 7 7 7 7 5 5 5 4
6 2 2 2 3 5 5 5 6 8 8 10 13 12 14 14 14 14 13 16 15 16 17 12 17 18 17 14 12 11 10 10 9 10 10 10 7 7 7 6 6 6 6 7 7 5 4 6 4
3 2 2 2 3 4 5 5 6 8 10 8 12 13 12 16 16 12 13 14 14 12 16 16 11 10 11 12 10 10 10 10 10 10 10 10 9 8 8 8 7 7 8 7 6 6 6 6 6
4 4 5 3 3 3 3 8 10 11 12 7 11 15 15 15 15 12 12 12 13 13 13 15 7 8 9 11 11 9 10 10 10 9 10 10 10 9 9 9 8 9 8 8 8 7 6 7 7
Wind_Direction
313 311 349 41 54 67 246 254 251 274 334 236 294 250 214 162 157 203 143 161 135 146 160 168 165 149 144 143 143 143 143 141 138 139 138 137 138 139 139 138 139 142 145 144 145 148 151 150 147
321 343 39 79 101 134 263 230 248 286 272 292 304 316 234 207 138 125 120 166 146 144 158 169 171 153 148 146 146 148 148 147 146 148 148 147 150 150 149 149 152 153 151 153 156 161 158 157 165
268 188 78 124 175 197 236 212 233 265 283 280 290 179 177 170 97 147 128 154 137 145 158 167 174 157 150 150 151 153 152 151 153 155 156 158 160 160 158 161 163 162 162 167 171 171 173 172 181
86 26 21 127 247 259 245 305 307 306 307 290 275 237 142 224 155 154 129 150 138 149 158 165 174 165 155 153 154 157 156 157 161 162 163 167 168 168 166 167 171 171 175 180 184 181 183 186 187
58 79 278 236 257 261 279 276 294 294 289 293 311 320 139 325 120 134 140 154 146 151 158 166 176 174 157 157 158 159 161 164 166 167 170 174 173 175 174 176 180 179 185 190 194 192 192 198 197
23 114 161 237 255 267 277 286 287 289 293 308 320 89 240 129 136 150 152 156 156 153 160 166 178 177 161 159 163 162 167 169 169 172 176 178 179 179 179 184 186 188 189 196 201 198 203 204 208
172 129 219 242 269 288 273 316 297 267 294 301 283 263 281 187 173 155 156 146 155 152 154 166 178 178 166 164 169 166 170 172 172 177 181 182 184 182 185 188 191 192 195 201 205 201 209 213 220
186 160 222 222 251 275 273 298 295 292 292 278 279 321 194 227 148 133 121 134 144 144 154 162 175 175 171 167 178 171 172 175 178 182 182 184 187 188 191 192 197 196 199 205 207 206 211 215 222
296 204 227 227 237 250 334 309 300 300 326 318 331 328 107 118 123 108 107 106 117 145 166 165 173 176 171 160 182 177 178 180 181 185 187 185 189 192 199 197 200 202 205 209 212 211 211 217 226
183 210 223 246 248 287 310 298 299 329 327 315 351 349 53 150 154 148 152 165 166 169 180 179 182 177 170 170 175 173 184 187 185 187 186 183 186 190 195 200 206 206 209 213 216 215 217 222 220
214 244 258 275 286 295 291 288 306 305 300 296 319 353 13 60 24 300 171 178 177 186 170 181 188 186 181 173 168 173 179 188 190 186 178 179 187 196 201 193 206 205 212 212 217 217 218 215 205
252 263 260 261 264 269 272 287 282 280 270 275 287 213 315 87 28 308 318 248 152 163 169 170 149 199 217 176 177 185 183 189 194 196 182 178 186 189 200 189 199 194 206 195 203 199 213 214 212
258 277 273 266 261 250 258 264 272 279 276 283 288 264 219 274 125 113 133 331 156 160 153 140 134 137 186 263 203 179 198 202 198 190 192 189 192 195 191 199 190 198 195 193 201 203 212 214 211
303 302 290 295 289 280 288 288 284 270 283 277 273 284 193 241 138 114 314 162 140 140 150 153 157 173 183 181 232 209 189 204 198 196 195 196 197 193 197 196 200 197 196 198 204 207 213 213 204
305 307 316 293 269 284 280 279 259 279 311 284 264 284 266 209 148 154 178 200 204 160 161 166 174 179 184 169 222 219 201 191 204 205 197 195 196 195 197 200 205 202 196 191 203 214 205 193 207
324 324 328 310 351 277 161 262 264 271 280 281 274 277 279 218 244 167 196 203 223 173 170 180 179 171 172 195 216 215 201 197 208 206 195 198 196 193 197 199 207 197 186 189 202 204 200 206 207
323 258 266 306 238 232 175 269 293 320 272 274 279 271 282 279 226 250 183 188 215 246 215 195 180 180 191 202 204 204 193 202 206 196 196 197 196 198 195 203 199 178 193 193 194 206 193 187 198
253 262 268 278 290 34 289 275 282 298 316 296 300 295 281 275 254 238 226 185 200 210 226 214 204 188 183 196 204 205 192 204 189 201 203 189 198 198 196 202 191 182 192 197 185 194 203 174 196
263 271 270 285 297 281 275 276 286 281 302 306 300 301 299 292 277 257 241 240 179 197 204 239 258 206 199 182 186 206 214 216 214 214 202 197 203 193 193 200 188 188 200 200 195 183 180 190 161
312 311 309 275 304 305 302 288 284 270 253 265 275 280 284 297 295 274 255 236 232 197 201 211 214 238 201 199 203 206 203 214 214 208 208 196 207 194 192 196 194 196 195 180 182 180 147 173 168
337 353 348 335 324 332 329 288 292 293 247 278 286 272 280 271 284 286 268 233 243 224 203 204 205 206 213 202 190 84 95 81 148 215 214 208 191 190 193 191 192 189 190 190 188 183 161 153 197
335 348 331 321 329 279 6 285 286 289 289 268 281 284 282 283 279 273 281 271 224 233 217 201 201 202 201 199 189 190 178 176 210 181 190 207 189 193 184 182 180 186 176 167 189 171 165 142 160
268 333 306 306 286 297 262 263 286 327 295 298 289 276 270 275 266 276 281 279 249 217 199 206 187 189 199 187 189 195 172 194 175 174 196 202 185 180 178 168 160 160 161 173 178 171 160 161 153
311 318 318 326 222 247 275 220 277 256 272 276 329 347 337 336 325 308 283 280 273 243 210 186 179 196 205 192 201 186 185 194 176 184 197 195 170 159 156 153 161 163 162 170 178 179 164 170 143
157 14 327 331 346 241 9 296 260 270 64 107 318 314 313 313 320 318 315 301 284 269 241 202 191 202 203 203 209 203 203 199 191 181 183 162 152 156 160 155 157 167 166 171 162 161 161 172 160
241 181 164 258 280 289 290 249 266 80 47 288 276 271 295 305 315 312 310 308 278 258 245 221 202 206 203 207 210 207 204 199 185 181 175 178 175 167 159 153 148 167 161 154 151 154 162 159 165
253 193 206 188 231 262 236 278 279 45 341 332 322 319 309 315 307 310 308 309 314 287 269 222 211 210 208 207 206 201 196 175 175 168 167 158 144 153 152 155 162 153 153 148 148 150 155 155 149
181 211 272 10 286 251 260 270 257 313 302 310 315 313 300 307 302 303 300 305 308 322 287 233 206 204 200 198 194 197 185 165 155 161 153 152 143 144 152 149 149 137 144 145 141 141 137 141 160
312 221 59 125 201 267 295 259 230 247 260 266 282 290 297 299 292 287 293 291 301 300 316 260 215 179 173 179 175 164 161 152 155 156 153 155 149 151 151 148 145 147 145 144 145 143 147 172 170
239 213 159 194 211 230 257 259 257 224 244 248 284 304 299 277 273 271 283 287 295 308 311 296 207 177 161 156 155 149 143 146 146 147 148 146 149 145 146 154 151 148 158 160 150 163 173 170 178